Location: Mound City (historical)
(34.0564°N, 117.2656°W)
Time: 12:53:42
(UTC+00:00)

Daily predictions for brighter satellites

Satellite Brightness Start Highest point End
(mag) Time Altitude Azimuth Time Altitude Azimuth Time Altitude Azimuth
NOSS 2-3 (E) 3.4 12:01:24 10° SSW 12:05:19 71° ESE 12:08:56 10° NE
SL-8 Rocket 4.1 12:01:52 10° N 12:08:07 84° E 12:14:17 10° S
Intelsat 5-1 Rocket 4.0 12:10:59 10° SW 12:14:52 32° SSE 12:23:17 10° ESE
Cosmos 1867 4.1 12:10:07 10° NW 12:15:04 36° WSW 12:19:58 10° S
Cosmos 1400 Rocket 3.5 12:15:01 10° NNW 12:18:21 30° W 12:21:40 10° SSW
ADEOS II 3.9 12:17:45 10° NNW 12:20:22 14° WNW 12:22:59 10° W
USA 307 4.4 12:19:25 10° WSW 12:20:40 11° SW 12:21:59 10° SW
SL-24 DEB 4.3 12:17:26 10° S 12:21:51 56° W 12:26:16 10° NNW
Cosmos 1680 Rocket 3.5 12:16:41 10° SSW 12:21:54 76° WNW 12:27:06 10° NNE
Cosmos 1833 Rocket 3.7 12:18:11 10° N 12:23:42 53° ENE 12:29:09 10° SE
